STARLINK-1210, 45207

Orbit data source: Space-Track

STARLINK-1210, 45207 is a payload satellite owned by SpaceX/Seattle (US) in LEO that was launched on Mon, 17 Feb 2020 UTC via an FALCON 9 launch vehicle from the Air Force Eastern Test Range (AFETR). Payload-class satellites include a variety of spacecraft equipped with specific instruments for various scientific and technological missions. These include communications satellites like Starlink; space stations such as the ISS; scientific satellites like the Hubble; Earth observation satellites from companies like Planet Labs, Umbra, and HawkEye 360; GPS; miniature CubeSats for education and research; and military/defense satellites.

Loading next visibility...
Identifier
45207, 2020-012AF
Orbit
LEO
Country
Flag of USUS
Related business
Manufacturer
SpaceX/Seattle
Mission
Partially operational Commercial Communications
Bus & Motor
STARLINK, Unknown motor
Mass
260 kg wet, ~248 kg dry
Launch date (UTC)
2020-02-17 (6 years ago)
Launch vehicle
FALCON 9
Launch site
Air Force Eastern Test Range (AFETR)
Object type
Payload
Rocket body
Debris
Shape & HBR
Box + 1 Pan, 10.1 m
Radar Cross Section
13.562 m², Large (>1 m²)

Expand to show TLE details & history
Last TLE update: 23 hours ago

TLE from 23 hours ago
0 STARLINK-1210
1 45207U 20012AF  25311.00003472  .00160066  00000-0  20581-2 0  9998
2 45207  53.0230 154.8669 0012130  87.3104 350.5333 15.57980085  6008
Epoch: 2025-11-07T00:00Z
TLE epoch observation values (Epoch: 2025-11-07T00:00:02.999Z)
Latitude
51.49553°
Longitude
178.64334°
Altitude
391.536 km
Speed
7.686 km/s
True Right ascension
15h 00m 25s
True Declination
51° 19' 08"
Sunlit
Object was in daylight at epoch
Visualization orbit readout
Latitude
Unknown
Longitude
Unknown
Altitude
Unknown
Speed
Unknown
Apparent Right ascension
Unknown
Apparent Declination
Unknown
Sunlit
N/A
Visualization observer readout
Local Sidereal Time
19:05:49
Azimuth
Unknown
Elevation
Unknown
Doppler factor
Unknown
Orbital elements
Apogee altitude
402 km
Perigee altitude
385.571 km
Semi-major axis
6,771.923 km
Eccentricity
0.00121
Inclination
53.023°
RAAN
154.8669°
Arg. of periapsis
87.3104°
True anomaly
350.5104°
Mean anomaly
350.5333°
Eccentric anomaly
350.52186°
Mean motion
3.89471 °/min
Orbital period
92.43 mins
BSTAR
0.0020581
Loading maneuver chart data...
Computing Atmospheric mass density...
Loading historical data...
Loading historical data...
Loading historical data...
Loading historical data...
Loading historical data...
Loading historical data...
Loading historical data...

Documentation

Showing up to 5 results
|